Find Gorizont

NORAD ID: 20953 Int'l Des: 1990-102 Owner: MSVYAZ Country: SU operational
MEOCIRCULARGSO

現在のビュー

3D地球を読み込み中...

Gorizontについて

説明を読み込み中...

次回通過

Passes for default location (London). Set your location on the main map for personalized predictions.

高度履歴

Loading altitude history...

軌道要素

1 20953U 90102A 26150.88742726 -.00000288 00000-0 00000-0 0 9998
2 20953 12.7417 337.3643 0004600 349.0471 22.1160 1.00269451130206
Epoch: May 30, 2026 • Age: 18 hours

現在のステータス

高度 35779.9 km
速度 3.08 km/s
衛星直下点 -12.11°S, 141.03°E
打ち上げ日 Nov 23, 1990
運用期間 35.5 years
タイプ other

技術仕様

分類 Payload
質量 2120.00 kg
乾燥質量 2000.00 kg
総質量 2120.00 kg
長さ 5.50 m
直径 3.30 m
スパン 9.50 m
形状 Cyl + 2 Pan
製造者 NPOPM
バスタイプ Gorizont
フェーズステータス In Orbit
所有者/国 MSVYAZ/SU

Most Searched